Cancun International Airp, Mexico

2:15 AM EST on July 27, 2016 (GMT -0500)
Cancun International

Weather History for MMUN - November, 2013

Change the Weather History Date:

Tuesday, November 12, 2013

  Actual Average Record
Temperature  
Mean Temperature 80 °F -  
Max Temperature 86 °F 83 °F 89 °F (1997)
Min Temperature 75 °F 69 °F 57 °F (2010)
Cooling Degree Days 16    
Growing Degree Days 30 (Base 50)    
Moisture  
Dew Point 74 °F    
Average Humidity 84    
Maximum Humidity 100    
Minimum Humidity 66    
Precipitation  
Precipitation 0.65 in - - ()
Sea Level Pressure  
Sea Level Pressure 29.97 in    
Wind  
Wind Speed 6 mph ()    
Max Wind Speed 10 mph    
Max Gust Speed -    
Visibility 7.0 miles    
Events      
Averages and records for this station are not official NWS values.
T = Trace of Precipitation, MM = Missing Value Source: Averaged Metar Reports

Daily Weather History Graph

Daily Weather History Graph

Search for Another Location

Airport or City:

Trip Planner

Search our weather history database for the weather conditions in past years. The results will help you decide how hot, cold, wet, or windy it might be!

Date:

Astronomy

Nov. 12, 2013 Rise Set
Actual Time 5:56 AM CST 5:06 PM CST
Civil Twilight 5:32 AM CST 5:30 PM CST
Nautical Twilight 5:06 AM CST 5:56 PM CST
Astronomical Twilight 4:39 AM CST 6:23 PM CST
Moon 1:48 PM CST (11/12) 1:21 AM CST (11/12)
Length of Visible Light 11h 57m
Length of Day
11h 10m
Waxing Gibbous, 76% of the Moon is Illuminated
Nov 12
Waxing Gibbous
Nov 17
Full
Nov 25
Last Quarter
Dec 2
New
Dec 9
First Quarter

Hourly Weather History & Observations

Time (CST) Temp. Heat Index Dew Point Humidity Pressure Visibility Wind Dir Wind Speed Gust Speed Precip Events Conditions
12:45 AM 77.0 °F - 75.2 °F 94% 29.97 in 7.0 mi East 5.8 mph - N/A   Mostly Cloudy
1:44 AM 77.0 °F - 75.2 °F 94% 29.95 in 7.0 mi ENE 5.8 mph - N/A   Mostly Cloudy
2:46 AM 77.0 °F - 73.4 °F 89% 29.93 in 7.0 mi ENE 5.8 mph - N/A   Mostly Cloudy
3:45 AM 77.0 °F - 73.4 °F 89% 29.94 in 7.0 mi North 5.8 mph - N/A   Mostly Cloudy
4:44 AM 77.0 °F - 75.2 °F 94% 29.94 in 7.0 mi ENE 5.8 mph - N/A   Mostly Cloudy
5:43 AM 78.8 °F - 73.4 °F 83% 29.97 in 7.0 mi ENE 5.8 mph - N/A   Mostly Cloudy
6:45 AM 78.8 °F - 75.2 °F 89% 29.99 in 7.0 mi ESE 9.2 mph - N/A   Mostly Cloudy
7:42 AM 80.6 °F 86.2 °F 75.2 °F 84% 30.01 in 7.0 mi ESE 6.9 mph - N/A   Mostly Cloudy
8:46 AM 84.2 °F 92.3 °F 75.2 °F 74% 30.02 in 7.0 mi East 8.1 mph - N/A   Scattered Clouds
9:48 AM 84.2 °F 90.9 °F 73.4 °F 70% 30.01 in 7.0 mi ENE 10.4 mph - N/A   Scattered Clouds
10:46 AM 86.0 °F 93.4 °F 73.4 °F 66% 30.00 in 7.0 mi East 9.2 mph - N/A   Scattered Clouds
11:51 AM 86.0 °F 93.4 °F 73.4 °F 66% 29.98 in 7.0 mi ESE 8.1 mph - N/A   Scattered Clouds
12:43 PM 86.0 °F 93.4 °F 73.4 °F 66% 29.95 in 7.0 mi East 10.4 mph - N/A   Scattered Clouds
1:46 PM 84.2 °F 90.9 °F 73.4 °F 70% 29.93 in 7.0 mi ENE 10.4 mph - N/A   Scattered Clouds
2:51 PM 82.4 °F 89.5 °F 75.2 °F 79% 29.92 in 7.0 mi East 8.1 mph - N/A   Scattered Clouds
3:45 PM 82.4 °F 89.5 °F 75.2 °F 79% 29.92 in 7.0 mi East 4.6 mph - N/A   Scattered Clouds
4:43 PM 80.6 °F 86.2 °F 75.2 °F 84% 29.93 in 7.0 mi ENE 3.5 mph - N/A   Mostly Cloudy
5:42 PM 78.8 °F - 75.2 °F 89% 29.95 in 7.0 mi NE 3.5 mph - N/A   Mostly Cloudy
6:53 PM 78.8 °F - 75.2 °F 89% 29.98 in 7.0 mi NNE 2.3 mph - N/A   Mostly Cloudy
7:41 PM 77.0 °F - 75.2 °F 94% 29.98 in 7.0 mi Calm Calm - N/A   Mostly Cloudy
8:57 PM 77.0 °F - 73.4 °F 89% 29.99 in 7.0 mi NW 4.6 mph - N/A   Mostly Cloudy
9:48 PM 75.2 °F - 73.4 °F 94% 30.00 in 7.0 mi WNW 4.6 mph - N/A   Mostly Cloudy
10:49 PM 75.2 °F - 75.2 °F 100% 29.99 in 7.0 mi North 3.5 mph - N/A   Mostly Cloudy
11:43 PM 75.2 °F - 73.4 °F 94% 29.97 in 7.0 mi NW 4.6 mph - N/A   Mostly Cloudy